Regional Weather Roundup
Issued by NWS Goodland, KS

Home | Current Version | Previous Version | Graphics & Text | Print | Product List | Glossary On
Versions: 1 2 3 4 5 6 7 8 9 10 11 12 13 14 15 16 17 18 19 20 21 22 23 24 25 26 27 28 29 30 31 32 33 34 35 36 37 38 39 40 41 42 43 44 45 46 47 48 49 50
000
ASUS43 KGLD 261159
RWRGLD

GOODLAND FORECAST AREA HOURLY WEATHER ROUNDUP
NATIONAL WEATHER SERVICE GOODLAND KS
600 AM MDT THU MAR 26 2015

...OFFICIAL OBSERVATIONS...

CITY           SKY/WX    TMP DP  RH WIND       PRES   REMARKS
GOODLAND KS    PTCLDY    28  26  92 W8        30.20S
HILL CITY KS   CLEAR     24  19  81 W3        30.25S
IMPERIAL NEB     N/A     23  18  81 CALM      30.19F
MCCOOK NEB     CLEAR     21  15  78 CALM      30.23R
AKRON CO       CLEAR     29  27  92 SW10      30.18R WCI  20
BURLINGTON CO  CLEAR     29  25  85 W9        30.20S
LIMON CO       CLEAR     20  18  92 N5        30.20S
$$

...UNOFFICIAL OBSERVATIONS...

CITY           SKY/WX    TMP DP  RH WIND       PRES   REMARKS
COLBY KS       CLEAR     21  21 100 W6        30.23R
GOVE KS          N/A     23  32 100 MISG        N/A
NORTON KS      CLEAR     19  16  86 W3        30.23S
SHARON SPRINGS   N/A     27  25  91 W6          N/A
KIT CARSON CO    N/A     24  22  90 MISG        N/A
YUMA CO          N/A     28  25  87 W7          N/A
$$



USA.gov is the U.S. government's official web portal to all federal, state and local government web resources and services.